This demonstration page uses our WeatherBlox Daily Observations layout. Learn more.

Left ArrowRight Arrow

38.80484, -77.04692

Hourly Observations for July 14, 2018

Temp ( °F °C ) Dew Point ( °F °C ) Humidity (%) Winds ( mph kmh ) Pressure ( in mb ) Visibility ( mi km ) Precip ( " mm )
12:52 am 00:52 Clear 75 23.9 61 16.1 62 62 SSW 8 13 30.20 1023 10 16 0.00 0.00
1:52 am 01:52 Clear 73 22.8 62 16.7 69 69 S 7 11 30.20 1023 10 16 0.00 0.00
2:52 am 02:52 Clear 72 22.2 61 16.1 68 68 SSW 3 6 30.20 1023 10 16 0.00 0.00
3:52 am 03:52 Clear 71 21.7 60 15.6 68 68 SSW 6 9 30.19 1022 10 16 0.00 0.00
4:52 am 04:52 Clear 71 21.7 60 15.6 68 68 WSW 5 7 30.19 1022 10 16 0.00 0.00
5:52 am 05:52 Mostly Clear 71 21.7 59 15 66 66 S 3 6 30.18 1022 10 16 0.00 0.00
6:52 am 06:52 Sunny 71 21.7 60 15.6 68 68 SSW 7 11 30.18 1022 10 16 0.00 0.00
7:52 am 07:52 Sunny 74 23.3 60 15.6 62 62 SW 3 6 30.18 1022 10 16 0.00 0.00
8:52 am 08:52 Sunny 77 25 59 15 54 54 SSW 7 11 30.18 1022 10 16 0.00 0.00
9:52 am 09:52 Sunny 80 26.7 62 16.7 54 54 SSE 8 13 30.17 1022 10 16 0.00 0.00
10:52 am 10:52 Sunny 83 28.3 60 15.6 46 46 S 12 19 30.17 1022 10 16 0.00 0.00
11:52 am 11:52 Sunny 86 30 56 13.3 36 36 S 13 20 30.17 1022 10 16 0.00 0.00
12:52 pm 12:52 Sunny 88 31.1 55 12.8 33 33 S 14 22 30.16 1021 10 16 0.00 0.00
1:52 pm 13:52 Mostly Sunny 89 31.7 51 10.6 27 27 S 14 22 30.14 1021 10 16 0.00 0.00
2:52 pm 14:52 Mostly Sunny 90 32.2 52 11.1 27 27 S 14 22 30.12 1020 10 16 0.00 0.00
3:52 pm 15:52 Mostly Sunny 91 32.8 56 13.3 31 31 SSW 14 22 30.11 1020 10 16 0.00 0.00
4:52 pm 16:52 Mostly Sunny 90 32.2 58 14.4 34 34 SSW 12 19 30.09 1019 10 16 0.00 0.00
5:52 pm 17:52 Mostly Sunny 89 31.7 60 15.6 38 38 SSE 13 20 30.09 1019 10 16 0.00 0.00
6:22 pm 18:22 Mostly Sunny 88 31.1 59 15 38 38 S 13 20 30.06 1018 10 16 0.00 0.00
6:52 pm 18:52 Mostly Sunny 88 31.1 60 15.6 39 39 S 12 19 30.06 1018 10 16 0.00 0.00
7:52 pm 19:52 Partly Cloudy 86 30 58 14.4 39 39 S 12 19 30.05 1018 10 16 0.00 0.00
8:52 pm 20:52 Mostly Clear 84 28.9 59 15 43 43 S 12 19 30.05 1018 10 16 0.00 0.00
9:52 pm 21:52 Mostly Clear 82 27.8 59 15 46 46 S 10 17 30.06 1018 10 16 0.00 0.00
10:52 pm 22:52 Clear 80 26.7 59 15 49 49 SSW 10 17 30.07 1018 10 16 0.00 0.00
11:52 pm 23:52 Clear 79 26.1 59 15 50 50 S 9 15 30.08 1019 10 16 0.00 0.00

Powered by AerisWeather